User: anonymous   Login
Location: Boiro
(42.6475°N, 8.8834°W)
Time: 22:14:59
(UTC+01:00)
Language:

ZACube-1 - Orbit

View from above orbital plane
View from above orbital plane
View from above satellite
View from above satellite

Ground track
Ground track

The orbit data is extracted from the following two-line orbital elements,

1 39417U 13066B   22021.51989468  .00000750  00000-0  98724-4 0  9993
2 39417  97.6187 359.8777 0058677 164.8938 195.4046 14.81784718441368
Epoch (UTC): 21 January 2022 12:28:38
Eccentricity: 0.0058677
inclination: 97.6187°
perigee height: 582 km
apogee height: 665 km
right ascension of ascending node: 359.8777°
argument of perigee: 164.8938°
revolutions per day: 14.81784718
mean anomaly at epoch: 195.4046°
orbit number at epoch: 44136

The dashed part of the orbit path shows where the satellite is in the earth's shadow,  

DLR